Bismarck, ND

6:10 AM CST on December 10, 2016 (GMT -0600)
Bismarck Municipal

Weather History for KBIS - September, 2012

Change the Weather History Date:

Wednesday, September 19, 2012

  Actual Average Record
Temperature  
Mean Temperature 61 °F 57 °F  
Max Temperature 69 °F 71 °F 94 °F (1972)
Min Temperature 52 °F 44 °F 22 °F (1896)
Degree Days  
Heating Degree Days 4 9  
Month to date heating degree days 106 109  
Since 1 July heating degree days 132 164  
Cooling Degree Days 0 1  
Month to date cooling degree days 33 34  
Year to date cooling degree days 599 515  
Growing Degree Days 10 (Base 50)    
Moisture  
Dew Point 31 °F    
Average Humidity 37    
Maximum Humidity 59    
Minimum Humidity 15    
Precipitation  
Precipitation 0.00 in 0.05 in 1.21 in (1996)
Month to date precipitation 0.04 1.07  
Year to date precipitation 12.17 14.88  
Snow  
Snow 0.00 in 0.00 in 0.00 in (2002)
Month to date snowfall 0.0 0.1  
Since 1 July snowfall 0.0 0.1  
Since 1 September snowfall 0.0 0.1  
Snow Depth 0.00 in    
Sea Level Pressure  
Sea Level Pressure 29.90 in    
Wind  
Wind Speed 15 mph (NW)    
Max Wind Speed 33 mph    
Max Gust Speed 45 mph    
Visibility 10 miles    
Events      
T = Trace of Precipitation, MM = Missing Value Source: NWS Daily Summary

Daily Weather History Graph

Daily Weather History Graph

Search for Another Location

Airport or City:

Trip Planner

Search our weather history database for the weather conditions in past years. The results will help you decide how hot, cold, wet, or windy it might be!

Date:

Astronomy

Sep. 19, 2012 Rise Set
Actual Time 7:26 AM CDT 7:45 PM CDT
Civil Twilight 6:56 AM CDT 8:15 PM CDT
Nautical Twilight 6:20 AM CDT 8:51 PM CDT
Astronomical Twilight 5:43 AM CDT 9:28 PM CDT
Moon 11:58 AM CDT (9/19) 9:36 PM CDT (9/19)
Length of Visible Light 13h 19m
Length of Day
12h 18m
Waxing Crescent, 17% of the Moon is Illuminated
Sep 19
Waxing Crescent
Sep 22
First Quarter
Sep 29
Full
Oct 8
Last Quarter
Oct 15
New

Hourly Weather History & Observations

Time (CDT) Temp. Dew Point Humidity Pressure Visibility Wind Dir Wind Speed Gust Speed Precip Events Conditions
12:52 AM 59.0 °F 39.2 °F 48% 29.69 in 10.0 mi NW 6.9 mph - N/A   Clear
1:52 AM 53.6 °F 39.2 °F 58% 29.71 in 10.0 mi Calm Calm - N/A   Clear
2:52 AM 55.9 °F 39.0 °F 53% 29.72 in 10.0 mi WNW 6.9 mph - N/A   Clear
3:52 AM 55.0 °F 39.0 °F 55% 29.73 in 10.0 mi NW 6.9 mph - N/A   Clear
4:52 AM 59.0 °F 37.9 °F 46% 29.76 in 10.0 mi NW 11.5 mph - N/A   Clear
5:52 AM 57.2 °F 37.4 °F 48% 29.81 in 10.0 mi NW 12.7 mph - N/A   Clear
6:52 AM 57.0 °F 39.0 °F 51% 29.83 in 10.0 mi NW 13.8 mph 24.2 mph N/A   Clear
7:52 AM 55.9 °F 39.9 °F 55% 29.86 in 10.0 mi WNW 18.4 mph 25.3 mph N/A   Clear
8:52 AM 57.0 °F 39.9 °F 53% 29.90 in 10.0 mi NW 20.7 mph 32.2 mph N/A   Clear
9:52 AM 59.0 °F 37.9 °F 46% 29.93 in 10.0 mi NW 27.6 mph 36.8 mph N/A   Clear
10:52 AM 61.0 °F 32.0 °F 34% 29.95 in 10.0 mi NW 23.0 mph 35.7 mph N/A   Clear
11:52 AM 62.1 °F 30.9 °F 31% 29.96 in 10.0 mi NW 28.8 mph 41.4 mph N/A   Clear
12:52 PM 64.0 °F 30.0 °F 28% 29.96 in 10.0 mi NW 23.0 mph 39.1 mph N/A   Clear
1:52 PM 66.0 °F 25.0 °F 21% 29.97 in 10.0 mi NW 23.0 mph 40.3 mph N/A   Clear
2:52 PM 68.0 °F 23.0 °F 18% 29.96 in 10.0 mi NW 23.0 mph 32.2 mph N/A   Clear
3:52 PM 66.9 °F 21.0 °F 17% 29.96 in 10.0 mi NNW 20.7 mph 38.0 mph N/A   Clear
4:52 PM 66.9 °F 18.0 °F 15% 29.97 in 10.0 mi NW 25.3 mph 36.8 mph N/A   Clear
5:52 PM 64.9 °F 19.9 °F 18% 29.98 in 10.0 mi NNW 24.2 mph 34.5 mph N/A   Clear
6:52 PM 63.0 °F 23.0 °F 22% 29.99 in 10.0 mi NNW 15.0 mph 24.2 mph N/A   Clear
7:52 PM 60.8 °F 24.8 °F 25% 30.00 in 10.0 mi NW 11.5 mph 20.7 mph N/A   Clear
8:52 PM 57.9 °F 25.0 °F 28% 30.02 in 10.0 mi NW 8.1 mph - N/A   Clear
9:52 PM 55.0 °F 25.0 °F 31% 30.03 in 10.0 mi NW 5.8 mph - N/A   Clear
10:52 PM 55.0 °F 26.1 °F 33% 30.03 in 10.0 mi NW 6.9 mph - N/A   Clear
11:52 PM 53.1 °F 26.1 °F 35% 30.03 in 10.0 mi NW 6.9 mph - N/A   Clear